TimeMST,TemperatureF,Dew PointF,Humidity,Sea Level PressureIn,VisibilityMPH,Wind Direction,Wind SpeedMPH,Gust SpeedMPH,PrecipitationIn,Events,Conditions,WindDirDegrees,DateUTC
1:09 AM,64.4,60.8,88,29.87,10.0,NNE,5.8,-,N/A,,Scattered Clouds,30,2012-11-20 08:09:00
1:11 AM,64.4,60.8,88,29.87,10.0,NNE,5.8,-,N/A,,Scattered Clouds,30,2012-11-20 08:11:00
1:45 AM,64.4,60.8,88,29.87,8.0,NE,6.9,-,N/A,,Scattered Clouds,40,2012-11-20 08:45:00
2:43 AM,64.4,62.6,94,29.85,8.0,North,8.1,-,N/A,,Scattered Clouds,360,2012-11-20 09:43:00
3:45 AM,64.4,60.8,88,29.85,8.0,North,6.9,-,N/A,,Scattered Clouds,10,2012-11-20 10:45:00
4:49 AM,62.6,60.8,94,29.88,8.0,West,5.8,-,N/A,,Partly Cloudy,260,2012-11-20 11:49:00
5:44 AM,62.6,60.8,94,29.87,5.0,North,6.9,-,N/A,,Mostly Cloudy,360,2012-11-20 12:44:00
6:47 AM,64.4,62.6,94,29.89,8.0,NNE,9.2,-,N/A,,Overcast,20,2012-11-20 13:47:00
7:45 AM,66.2,64.4,94,29.89,8.0,NNE,9.2,-,N/A,,Mostly Cloudy,20,2012-11-20 14:45:00
8:41 AM,71.6,66.2,83,29.91,8.0,NNE,6.9,-,N/A,,Mostly Cloudy,20,2012-11-20 15:41:00
9:42 AM,75.2,71.6,89,29.92,8.0,Calm,Calm,-,N/A,,Mostly Cloudy,0,2012-11-20 16:42:00
10:48 AM,80.6,69.8,70,29.91,10.0,ENE,5.8,-,N/A,,Overcast,60,2012-11-20 17:48:00
11:46 AM,80.6,71.6,74,29.87,10.0,South,5.8,-,N/A,,Overcast,180,2012-11-20 18:46:00
12:40 PM,82.4,71.6,70,29.84,10.0,SW,8.1,-,N/A,,Overcast,230,2012-11-20 19:40:00
1:41 PM,80.6,71.6,74,29.83,10.0,WSW,9.2,-,N/A,,Overcast,250,2012-11-20 20:41:00
2:41 PM,82.4,71.6,70,29.81,8.0,WSW,9.2,-,N/A,,Overcast,250,2012-11-20 21:41:00
3:42 PM,80.6,71.6,74,29.80,8.0,WSW,9.2,-,N/A,,Overcast,250,2012-11-20 22:42:00
4:41 PM,78.8,71.6,78,29.80,8.0,West,8.1,-,N/A,,Overcast,260,2012-11-20 23:41:00
5:41 PM,75.2,69.8,83,29.82,8.0,West,6.9,-,N/A,,Overcast,260,2012-11-21 00:41:00
6:47 PM,73.4,69.8,88,29.85,8.0,WSW,8.1,-,N/A,,Overcast,250,2012-11-21 01:47:00
7:45 PM,71.6,69.8,94,29.89,8.0,Calm,Calm,-,N/A,,Overcast,0,2012-11-21 02:45:00
8:41 PM,69.8,68.0,94,29.89,8.0,West,10.4,-,N/A,,Mostly Cloudy,260,2012-11-21 03:41:00
9:43 PM,68.0,66.2,94,29.89,8.0,NNE,6.9,-,N/A,,Scattered Clouds,20,2012-11-21 04:43:00
10:43 PM,66.2,64.4,94,29.90,5.0,ENE,6.9,-,N/A,Fog,Mostly Cloudy,60,2012-11-21 05:43:00
11:43 PM,68.0,66.2,94,29.90,3.0,ENE,6.9,-,N/A,,Mostly Cloudy,70,2012-11-21 06:43:00